Overview Statistics Trail Chart Weather Telemetry Raw packets
 

This is the latest recevied weather packets stored in our database for station/object WD7OO. If no packets are shown the sender has not sent any weather packets the latest 10 day(s).

<< 37 38 39 40 41 42 43 >>
Time Temp. Humidity Pressure Rain* Wind** Luminosity Snow
1788372442 33.89° C 63% 1015.8 hPa 0 mm - 630 W/m² -
1788372115 33.89° C 63% 1015.8 hPa 0 mm - 652 W/m² -
1788371815 33.33° C 63% 1015.6 hPa 0 mm - 609 W/m² -
1788371511 33.33° C 63% 1015.8 hPa 0 mm - 510 W/m² -
1788371207 33.33° C 66% 1015.9 hPa 0 mm - 575 W/m² -
1788370903 33.33° C 63% 1015.8 hPa 0 mm - 698 W/m² -
1788370598 32.78° C 69% 1015.9 hPa 0 mm - 652 W/m² -
1788370293 32.22° C 66% 1016.2 hPa 0 mm - 649 W/m² -
1788369987 32.22° C 65% 1016.3 hPa 0 mm - 653 W/m² -
1788369687 32.78° C 65% 1016.2 hPa 0 mm - 676 W/m² -
1788369382 33.33° C 63% 1016.2 hPa 0 mm - 681 W/m² -
1788369078 32.78° C 67% 1016.2 hPa 0 mm - 629 W/m² -
1788368774 32.78° C 69% 1016.1 hPa 0 mm - 609 W/m² -
1788368469 32.78° C 68% 1016.4 hPa 0 mm - 617 W/m² -
1788368168 32.22° C 70% 1016.4 hPa 0 mm - 672 W/m² -
1788367863 32.22° C 70% 1016.4 hPa 0 mm - 688 W/m² -
1788367558 31.67° C 72% 1016.4 hPa 0 mm - 641 W/m² -
1788367257 31.67° C 73% 1016.4 hPa 0 mm - 645 W/m² -
1788366953 31.67° C 72% 1016.4 hPa 0 mm - 600 W/m² -
1788366651 31.67° C 70% 1016.5 hPa 0 mm - 206 W/m² -
1788366345 32.22° C 69% 1016.4 hPa 0 mm - 216 W/m² -
1788366041 33.33° C 63% 1016.4 hPa 0 mm - 264 W/m² -
1788365741 33.33° C 64% 1016.3 hPa 0 mm - 743 W/m² -
1788365437 32.78° C 67% 1016.3 hPa 0 mm - 767 W/m² -
1788365132 32.78° C 67% 1016.1 hPa 0 mm - 695 W/m² -

* Rain latest hour (hover to see other rain measurements)
** Current wind speed in m/s (hover to see current wind gust speed)